Content
SEND FEEDBACK

Daily
Averages
Monthly
Summary
United States of America

ST. MARIE, MONTANA


Home > North America > United States > Montana
Elevation: 2256 feet     Latitude: 48 13N     Longitude: 106 37W

WEATHER
 
SELECT A DAY
Number of Records: 197,612;   Date Range: 1/1/95 - 8/12/14
 
SHARE

PRINT THIS DATA

[ ← Previous Day ]
WEATHER ALMANAC - FEBRUARY 13, 2013
[ Next Day → ]
[ °C ]   °F
Weather ElementAverageHighLow
Temperature34.8 °F39.9 °F (12:53 pm)28.9 °F (10:53 pm)
Dewpoint25.7 °F30 °F (3:53 am)19.4 °F (9:31 pm)
Humidity69.6 %79 % (2:53 am)60 % (1:53 pm)
Barometer29.85 in30.03 in (10:53 pm)29.70 in (2:53 am)
Wind Speed17.9 mph28.8 mph (9:31 pm)
Wind Gust39.1 mph (9:31 pm)
Weather ElementAverage
Visibility10 mi
Wind DirectionWNW (294.6 °)

Weather ElementTotal
Precipitation---
Heating Degree Days30.6 (Base 65)
Averaged from 24 records on February 13, 2013
WEATHER CONDITIONS BREAKOUT
WIND DIRECTION BREAKOUT
WEATHER BY HOUR - FEBRUARY 13, 2013
[ °C ]   °F
Local TimeTemperatureDewpointHumidityBarometerVisibilityWind DirectionWind SpeedGust SpeedPrecipitationEventsConditions
1:53 AM33.1 °F26.1 °F75 %29.72 in10.0 miWest (280°)5.8 mphOvercast
2:53 AM32.0 °F26.1 °F79 %29.70 in10.0 miWNW (290°)5.8 mphOvercast
3:53 AM37.0 °F30.0 °F76 %29.70 in10.0 miWNW (300°)12.7 mphOvercast
4:53 AM37.9 °F28.9 °F70 %29.70 in10.0 miWest (280°)16.1 mph0.00 inOvercast
5:53 AM37.9 °F28.9 °F70 %29.72 in10.0 miWNW (290°)19.6 mph26.5 mphOvercast
6:53 AM36.0 °F28.0 °F73 %29.74 in10.0 miWest (260°)12.7 mphScattered Clouds
7:53 AM35.1 °F28.9 °F78 %29.75 in10.0 miWest (270°)10.4 mphMostly Cloudy
8:53 AM37.0 °F28.0 °F70 %29.77 in10.0 miNW (310°)12.7 mphClear
9:53 AM37.0 °F28.9 °F73 %29.78 in10.0 miWest (280°)8.1 mphScattered Clouds
10:53 AM39.0 °F30.0 °F70 %29.81 in10.0 miWNW (290°)12.7 mphClear
11:53 AM39.0 °F28.9 °F67 %29.82 in10.0 miWNW (290°)17.3 mphClear
12:53 PM39.9 °F28.9 °F65 %29.83 in10.0 miWNW (300°)16.1 mphMostly Cloudy
1:53 PM39.9 °F27.0 °F60 %29.83 in10.0 miNW (310°)21.9 mph32.2 mphPartly Cloudy
2:53 PM37.9 °F28.0 °F68 %29.88 in10.0 miNW (310°)23.0 mph32.2 mphClear
3:53 PM37.0 °F28.9 °F73 %29.90 in10.0 miNW (310°)18.4 mph25.3 mphClear
4:53 PM35.1 °F24.1 °F64 %29.90 in10.0 miNW (320°)26.5 mph33.4 mphClear
5:53 PM34.0 °F21.9 °F61 %29.95 in10.0 miNW (310°)19.6 mph29.9 mphPartly Cloudy
6:53 PM32.0 °F21.0 °F64 %29.97 in10.0 miNW (310°)25.3 mph32.2 mphScattered Clouds
7:53 PM30.0 °F19.9 °F66 %29.98 in10.0 miNW (310°)23.0 mph34.5 mphClear
8:53 PM30.0 °F19.9 °F66 %29.99 in10.0 miWest (280°)19.6 mph29.9 mphMostly Cloudy
9:31 PM30.2 °F19.4 °F64 %29.92 in10.0 miWNW (300°)28.8 mph39.1 mphOvercast
9:53 PM30.0 °F19.9 °F66 %30.01 in10.0 miWNW (290°)25.3 mph35.7 mphOvercast
10:53 PM28.9 °F21.9 °F75 %30.03 in10.0 miWNW (290°)23.0 mph35.7 mphOvercast
11:53 PM28.9 °F23.0 °F78 %30.02 in10.0 miWNW (290°)25.3 mph36.8 mphMostly Cloudy
Hourly data recorded from KGGW, located miles away from St. Marie, Montana







STORIES FROM OUR PARTNERS